Time,TemperatureF,DewpointF,PressureIn,WindDirection,WindDirectionDegrees,WindSpeedMPH,WindSpeedGustMPH,Humidity,HourlyPrecipIn,Conditions,Clouds,dailyrainin,SoftwareType,DateUTC
2013-07-30 00:03:00,65.5,48.9,30.18,North,-999,0.0,0.0,55,0.00,,,-99.99,FreeWX 2.04,2013-07-30 04:03:00,
2013-07-30 00:13:00,65.3,48.7,30.18,North,-999,0.0,0.0,55,0.00,,,-99.99,FreeWX 2.04,2013-07-30 04:13:00,
2013-07-30 00:23:00,65.1,49.1,30.18,North,-999,0.0,0.0,56,0.00,,,-99.99,FreeWX 2.04,2013-07-30 04:23:00,
2013-07-30 00:33:00,64.9,49.3,30.18,North,-999,0.0,0.0,57,0.00,,,-99.99,FreeWX 2.04,2013-07-30 04:33:00,
2013-07-30 00:43:00,64.8,49.1,30.18,North,-999,0.0,0.0,57,0.00,,,-99.99,FreeWX 2.04,2013-07-30 04:43:00,
2013-07-30 00:53:00,64.4,48.7,30.21,North,-999,0.0,0.0,57,0.00,,,-99.99,FreeWX 2.04,2013-07-30 04:53:00,
2013-07-30 01:03:00,64.0,48.6,30.18,North,-999,0.0,0.0,57,0.00,,,-99.99,FreeWX 2.04,2013-07-30 05:03:00,
2013-07-30 01:13:00,64.0,49.8,30.18,North,-999,0.0,0.0,60,0.00,,,-99.99,FreeWX 2.04,2013-07-30 05:13:00,
2013-07-30 01:23:00,63.9,50.5,30.21,North,-999,0.0,0.0,62,0.00,,,-99.99,FreeWX 2.04,2013-07-30 05:23:00,
2013-07-30 01:33:00,63.7,50.0,30.18,North,-999,0.0,0.0,61,0.00,,,-99.99,FreeWX 2.04,2013-07-30 05:33:00,
2013-07-30 01:43:00,63.5,49.8,30.18,North,-999,0.0,0.0,61,0.00,,,-99.99,FreeWX 2.04,2013-07-30 05:43:00,
2013-07-30 01:53:00,63.1,49.5,30.18,North,-999,0.0,0.0,61,0.00,,,-99.99,FreeWX 2.04,2013-07-30 05:53:00,
2013-07-30 02:04:00,63.1,49.5,30.18,North,-999,0.0,0.0,61,0.00,,,-99.99,FreeWX 2.04,2013-07-30 06:04:00,
2013-07-30 02:14:00,62.8,49.1,30.18,North,-999,0.0,0.0,61,0.00,,,-99.99,FreeWX 2.04,2013-07-30 06:14:00,
2013-07-30 02:24:00,62.8,49.1,30.18,North,-999,0.0,0.0,61,0.00,,,-99.99,FreeWX 2.04,2013-07-30 06:24:00,
2013-07-30 02:34:00,62.6,48.9,30.18,North,-999,0.0,0.0,61,0.00,,,-99.99,FreeWX 2.04,2013-07-30 06:34:00,
2013-07-30 02:44:00,62.6,49.5,30.18,North,-999,0.0,0.0,62,0.00,,,-99.99,FreeWX 2.04,2013-07-30 06:44:00,
2013-07-30 02:54:00,62.4,49.3,30.18,North,-999,0.0,0.0,62,0.00,,,-99.99,FreeWX 2.04,2013-07-30 06:54:00,
2013-07-30 03:04:00,62.4,49.3,30.18,North,-999,0.0,0.0,62,0.00,,,-99.99,FreeWX 2.04,2013-07-30 07:04:00,
2013-07-30 03:14:00,62.2,48.6,30.18,North,-999,0.0,0.0,61,0.00,,,-99.99,FreeWX 2.04,2013-07-30 07:14:00,
2013-07-30 03:24:00,61.9,48.7,30.18,North,-999,0.0,0.0,62,0.00,,,-99.99,FreeWX 2.04,2013-07-30 07:24:00,
2013-07-30 03:34:00,62.1,48.9,30.18,North,-999,0.0,0.0,62,0.00,,,-99.99,FreeWX 2.04,2013-07-30 07:34:00,
2013-07-30 03:44:00,61.9,48.7,30.18,North,-999,0.0,0.0,62,0.00,,,-99.99,FreeWX 2.04,2013-07-30 07:44:00,
2013-07-30 03:54:00,61.9,48.7,30.18,North,-999,0.0,0.0,62,0.00,,,-99.99,FreeWX 2.04,2013-07-30 07:54:00,
2013-07-30 04:04:00,61.7,48.6,30.18,North,-999,0.0,0.0,62,0.00,,,-99.99,FreeWX 2.04,2013-07-30 08:04:00,
2013-07-30 04:14:00,61.5,48.7,30.18,North,-999,0.0,0.0,63,0.00,,,-99.99,FreeWX 2.04,2013-07-30 08:14:00,
2013-07-30 04:24:00,61.5,48.7,30.18,North,-999,0.0,0.0,63,0.00,,,-99.99,FreeWX 2.04,2013-07-30 08:24:00,
2013-07-30 04:34:00,61.3,48.6,30.18,North,-999,0.0,0.0,63,0.00,,,-99.99,FreeWX 2.04,2013-07-30 08:34:00,
2013-07-30 04:44:00,61.3,49.1,30.18,North,-999,0.0,0.0,64,0.00,,,-99.99,FreeWX 2.04,2013-07-30 08:44:00,
2013-07-30 04:54:00,61.2,48.9,30.18,North,-999,0.0,0.0,64,0.00,,,-99.99,FreeWX 2.04,2013-07-30 08:54:00,
2013-07-30 05:04:00,61.0,48.4,30.18,North,-999,0.0,0.0,63,0.00,,,-99.99,FreeWX 2.04,2013-07-30 09:04:00,
2013-07-30 05:14:00,61.0,48.7,30.18,North,-999,0.0,0.0,64,0.00,,,-99.99,FreeWX 2.04,2013-07-30 09:14:00,
2013-07-30 05:24:00,60.8,48.6,30.21,North,-999,0.0,0.0,64,0.00,,,-99.99,FreeWX 2.04,2013-07-30 09:24:00,
2013-07-30 05:34:00,60.4,47.8,30.18,North,-999,0.0,0.0,63,0.00,,,-99.99,FreeWX 2.04,2013-07-30 09:34:00,
2013-07-30 05:44:00,60.6,48.4,30.18,North,-999,0.0,0.0,64,0.00,,,-99.99,FreeWX 2.04,2013-07-30 09:44:00,
2013-07-30 05:54:00,60.4,48.2,30.21,North,-999,0.0,0.0,64,0.00,,,-99.99,FreeWX 2.04,2013-07-30 09:54:00,
2013-07-30 06:04:00,60.3,48.0,30.21,North,-999,0.0,0.0,64,0.00,,,-99.99,FreeWX 2.04,2013-07-30 10:04:00,
2013-07-30 06:14:00,60.1,47.8,30.21,North,-999,0.0,0.0,64,0.00,,,-99.99,FreeWX 2.04,2013-07-30 10:14:00,
2013-07-30 06:24:00,60.3,48.0,30.21,North,-999,0.0,0.0,64,0.00,,,-99.99,FreeWX 2.04,2013-07-30 10:24:00,
2013-07-30 06:34:00,60.3,48.4,30.21,North,-999,0.0,0.0,65,0.00,,,-99.99,FreeWX 2.04,2013-07-30 10:34:00,
2013-07-30 06:44:00,59.9,47.7,30.21,North,-999,0.0,0.0,64,0.00,,,-99.99,FreeWX 2.04,2013-07-30 10:44:00,
2013-07-30 06:54:00,59.9,48.0,30.21,North,-999,0.0,0.0,65,0.00,,,-99.99,FreeWX 2.04,2013-07-30 10:54:00,
2013-07-30 07:04:00,59.9,48.0,30.21,North,-999,0.0,0.0,65,0.00,,,-99.99,FreeWX 2.04,2013-07-30 11:04:00,
2013-07-30 07:14:00,59.9,48.0,30.21,North,-999,0.0,0.0,65,0.00,,,-99.99,FreeWX 2.04,2013-07-30 11:14:00,
2013-07-30 07:24:00,60.3,48.9,30.21,North,-999,0.0,0.0,66,0.00,,,-99.99,FreeWX 2.04,2013-07-30 11:24:00,
2013-07-30 07:34:00,60.8,49.3,30.21,North,-999,0.0,0.0,66,0.00,,,-99.99,FreeWX 2.04,2013-07-30 11:34:00,
2013-07-30 07:44:00,61.3,50.4,30.21,North,-999,0.0,0.0,67,0.00,,,-99.99,FreeWX 2.04,2013-07-30 11:44:00,
2013-07-30 07:54:00,62.1,50.9,30.21,North,-999,0.0,0.0,67,0.00,,,-99.99,FreeWX 2.04,2013-07-30 11:54:00,
2013-07-30 08:04:00,62.4,50.9,30.24,North,-999,0.0,0.0,66,0.00,,,-99.99,FreeWX 2.04,2013-07-30 12:04:00,
2013-07-30 08:28:00,63.9,52.7,30.24,North,-999,0.0,0.0,67,0.00,,,-99.99,FreeWX 2.04,2013-07-30 12:28:00,
2013-07-30 08:38:00,64.4,53.2,30.24,North,-999,0.0,0.0,67,0.00,,,-99.99,FreeWX 2.04,2013-07-30 12:38:00,
2013-07-30 08:48:00,64.9,53.8,30.24,North,-999,0.0,0.0,67,0.00,,,-99.99,FreeWX 2.04,2013-07-30 12:48:00,
2013-07-30 08:58:00,65.7,54.3,30.24,North,-999,0.0,0.0,67,0.00,,,-99.99,FreeWX 2.04,2013-07-30 12:58:00,
2013-07-30 09:08:00,66.6,55.2,30.24,North,-999,0.0,0.0,67,0.00,,,-99.99,FreeWX 2.04,2013-07-30 13:08:00,
2013-07-30 09:18:00,68.2,56.8,30.24,North,-999,0.0,0.0,67,0.00,,,-99.99,FreeWX 2.04,2013-07-30 13:18:00,
2013-07-30 09:28:00,68.9,56.1,30.24,North,-999,0.0,4.0,64,0.00,,,-99.99,FreeWX 2.04,2013-07-30 13:28:00,
2013-07-30 09:38:00,69.3,55.2,30.24,North,-999,0.0,4.9,61,0.00,,,-99.99,FreeWX 2.04,2013-07-30 13:38:00,
2013-07-30 09:48:00,71.4,54.9,30.24,North,-999,0.0,3.6,56,0.00,,,-99.99,FreeWX 2.04,2013-07-30 13:48:00,
2013-07-30 09:58:00,72.5,49.3,30.24,North,-999,0.0,4.0,44,0.00,,,-99.99,FreeWX 2.04,2013-07-30 13:58:00,
2013-07-30 10:08:00,72.9,46.4,30.24,North,-999,0.0,4.0,39,0.00,,,-99.99,FreeWX 2.04,2013-07-30 14:08:00,
2013-07-30 10:18:00,73.2,47.5,30.24,North,-999,0.0,5.8,40,0.00,,,-99.99,FreeWX 2.04,2013-07-30 14:18:00,
2013-07-30 10:28:00,73.4,43.3,30.21,NNW,343,2.0,4.9,34,0.00,,,-99.99,FreeWX 2.04,2013-07-30 14:28:00,
2013-07-30 10:38:00,73.6,44.2,30.21,North,-999,0.0,4.9,35,0.00,,,-99.99,FreeWX 2.04,2013-07-30 14:38:00,
2013-07-30 10:48:00,74.1,43.9,30.21,NNW,341,1.0,4.9,34,0.00,,,-99.99,FreeWX 2.04,2013-07-30 14:48:00,
2013-07-30 10:58:00,74.8,45.3,30.21,North,-999,0.0,4.5,35,0.00,,,-99.99,FreeWX 2.04,2013-07-30 14:58:00,
2013-07-30 11:08:00,75.9,45.5,30.21,North,-999,0.0,4.0,34,0.00,,,-99.99,FreeWX 2.04,2013-07-30 15:08:00,
2013-07-30 11:18:00,77.5,41.9,30.21,North,-999,0.0,4.0,28,0.00,,,-99.99,FreeWX 2.04,2013-07-30 15:18:00,
2013-07-30 11:28:00,78.6,41.9,30.21,North,-999,0.0,0.0,27,0.00,,,-99.99,FreeWX 2.04,2013-07-30 15:28:00,
2013-07-30 11:38:00,80.6,41.5,30.21,North,-999,0.0,4.5,25,0.00,,,-99.99,FreeWX 2.04,2013-07-30 15:38:00,
2013-07-30 11:48:00,81.3,38.8,30.21,North,-999,0.0,4.9,22,0.00,,,-99.99,FreeWX 2.04,2013-07-30 15:48:00,
2013-07-30 11:58:00,80.4,36.9,30.21,North,-999,0.0,4.9,21,0.00,,,-99.99,FreeWX 2.04,2013-07-30 15:58:00,
2013-07-30 12:08:00,80.8,37.2,30.21,North,-999,0.0,3.1,21,0.00,,,-99.99,FreeWX 2.04,2013-07-30 16:08:00,
2013-07-30 12:18:00,80.6,35.8,30.21,North,-999,0.0,4.5,20,0.00,,,-99.99,FreeWX 2.04,2013-07-30 16:18:00,
2013-07-30 12:28:00,81.0,36.1,30.21,North,-999,0.0,2.7,20,0.00,,,-99.99,FreeWX 2.04,2013-07-30 16:28:00,
2013-07-30 12:38:00,79.9,37.6,30.21,North,-999,0.0,0.0,22,0.00,,,-99.99,FreeWX 2.04,2013-07-30 16:38:00,
2013-07-30 12:48:00,80.4,36.9,30.21,North,-999,0.0,0.0,21,0.00,,,-99.99,FreeWX 2.04,2013-07-30 16:48:00,
2013-07-30 12:58:00,80.2,36.7,30.21,North,-999,0.0,4.0,21,0.00,,,-99.99,FreeWX 2.04,2013-07-30 16:58:00,
2013-07-30 13:08:00,81.5,37.8,30.21,North,-999,0.0,4.9,21,0.00,,,-99.99,FreeWX 2.04,2013-07-30 17:08:00,
2013-07-30 13:18:00,84.7,37.9,30.21,North,-999,0.0,5.4,19,0.00,,,-99.99,FreeWX 2.04,2013-07-30 17:18:00,
2013-07-30 13:28:00,85.1,36.9,30.21,NNE,26,1.0,4.5,18,0.00,,,-99.99,FreeWX 2.04,2013-07-30 17:28:00,
2013-07-30 13:38:00,84.4,33.3,30.21,North,-999,0.0,4.0,16,0.00,,,-99.99,FreeWX 2.04,2013-07-30 17:38:00,
2013-07-30 13:48:00,84.4,33.3,30.21,North,-999,0.0,5.4,16,0.00,,,-99.99,FreeWX 2.04,2013-07-30 17:48:00,
2013-07-30 13:58:00,82.0,35.6,30.21,North,-999,0.0,0.0,19,0.00,,,-99.99,FreeWX 2.04,2013-07-30 17:58:00,
2013-07-30 14:08:00,80.8,37.2,30.18,North,-999,0.0,0.0,21,0.00,,,-99.99,FreeWX 2.04,2013-07-30 18:08:00,
2013-07-30 14:18:00,84.0,37.2,30.18,North,-999,0.0,4.9,19,0.00,,,-99.99,FreeWX 2.04,2013-07-30 18:18:00,
2013-07-30 14:28:00,82.6,31.8,30.18,North,349,1.0,6.3,16,0.00,,,-99.99,FreeWX 2.04,2013-07-30 18:28:00,
2013-07-30 14:38:00,83.3,32.4,30.18,North,-999,0.0,4.9,16,0.00,,,-99.99,FreeWX 2.04,2013-07-30 18:38:00,
2013-07-30 14:48:00,81.7,35.4,30.18,North,-999,0.0,4.9,19,0.00,,,-99.99,FreeWX 2.04,2013-07-30 18:48:00,
2013-07-30 14:58:00,82.9,36.5,30.18,North,-999,0.0,0.0,19,0.00,,,-99.99,FreeWX 2.04,2013-07-30 18:58:00,
2013-07-30 15:08:00,83.3,36.7,30.18,North,-999,0.0,0.0,19,0.00,,,-99.99,FreeWX 2.04,2013-07-30 19:08:00,
2013-07-30 15:18:00,84.6,37.8,30.18,North,-999,0.0,4.0,19,0.00,,,-99.99,FreeWX 2.04,2013-07-30 19:18:00,
2013-07-30 15:28:00,85.8,34.3,30.18,NNE,14,2.0,5.8,16,0.00,,,-99.99,FreeWX 2.04,2013-07-30 19:28:00,
2013-07-30 15:38:00,85.6,34.3,30.18,North,4,2.0,4.9,16,0.00,,,-99.99,FreeWX 2.04,2013-07-30 19:38:00,
2013-07-30 15:48:00,84.7,33.6,30.18,NNW,344,2.0,5.4,16,0.00,,,-99.99,FreeWX 2.04,2013-07-30 19:48:00,
2013-07-30 15:58:00,83.8,32.9,30.18,North,-999,0.0,3.1,16,0.00,,,-99.99,FreeWX 2.04,2013-07-30 19:58:00,
2013-07-30 16:08:00,82.8,36.3,30.18,North,-999,0.0,0.0,19,0.00,,,-99.99,FreeWX 2.04,2013-07-30 20:08:00,
2013-07-30 16:18:00,81.7,36.7,30.18,North,-999,0.0,0.0,20,0.00,,,-99.99,FreeWX 2.04,2013-07-30 20:18:00,
2013-07-30 16:28:00,79.9,40.8,30.18,North,-999,0.0,0.0,25,0.00,,,-99.99,FreeWX 2.04,2013-07-30 20:28:00,
2013-07-30 16:38:00,78.4,44.4,30.18,North,-999,0.0,0.0,30,0.00,,,-99.99,FreeWX 2.04,2013-07-30 20:38:00,
2013-07-30 16:49:00,77.4,45.1,30.18,North,-999,0.0,0.0,32,0.00,,,-99.99,FreeWX 2.04,2013-07-30 20:49:00,
2013-07-30 16:59:00,76.3,45.0,30.18,North,-999,0.0,0.0,33,0.00,,,-99.99,FreeWX 2.04,2013-07-30 20:59:00,
2013-07-30 17:09:00,76.1,45.7,30.18,North,-999,0.0,0.0,34,0.00,,,-99.99,FreeWX 2.04,2013-07-30 21:09:00,
2013-07-30 17:19:00,75.9,43.9,30.18,North,-999,0.0,0.0,32,0.00,,,-99.99,FreeWX 2.04,2013-07-30 21:19:00,
2013-07-30 17:29:00,75.7,43.0,30.18,North,-999,0.0,0.0,31,0.00,,,-99.99,FreeWX 2.04,2013-07-30 21:29:00,
2013-07-30 17:39:00,75.6,43.7,30.15,North,-999,0.0,0.0,32,0.00,,,-99.99,FreeWX 2.04,2013-07-30 21:39:00,
2013-07-30 17:49:00,75.4,45.0,30.15,North,-999,0.0,0.0,34,0.00,,,-99.99,FreeWX 2.04,2013-07-30 21:49:00,
2013-07-30 17:59:00,75.4,48.7,30.15,North,-999,0.0,0.0,39,0.00,,,-99.99,FreeWX 2.04,2013-07-30 21:59:00,
2013-07-30 18:09:00,74.8,50.2,30.15,North,-999,0.0,0.0,42,0.00,,,-99.99,FreeWX 2.04,2013-07-30 22:09:00,
2013-07-30 18:19:00,74.7,51.3,30.15,North,-999,0.0,0.0,44,0.00,,,-99.99,FreeWX 2.04,2013-07-30 22:19:00,
2013-07-30 18:29:00,74.5,50.5,30.15,North,-999,0.0,0.0,43,0.00,,,-99.99,FreeWX 2.04,2013-07-30 22:29:00,
2013-07-30 18:39:00,74.1,49.5,30.15,North,-999,0.0,0.0,42,0.00,,,-99.99,FreeWX 2.04,2013-07-30 22:39:00,
2013-07-30 18:49:00,73.6,49.6,30.15,North,-999,0.0,0.0,43,0.00,,,-99.99,FreeWX 2.04,2013-07-30 22:49:00,
2013-07-30 18:59:00,73.2,50.0,30.15,North,-999,0.0,0.0,44,0.00,,,-99.99,FreeWX 2.04,2013-07-30 22:59:00,
2013-07-30 19:09:00,73.0,50.4,30.15,North,-999,0.0,0.0,45,0.00,,,-99.99,FreeWX 2.04,2013-07-30 23:09:00,
2013-07-30 19:19:00,72.7,51.3,30.15,North,-999,0.0,0.0,47,0.00,,,-99.99,FreeWX 2.04,2013-07-30 23:19:00,
2013-07-30 19:29:00,72.5,51.6,30.15,North,-999,0.0,0.0,48,0.00,,,-99.99,FreeWX 2.04,2013-07-30 23:29:00,
2013-07-30 19:39:00,72.3,52.7,30.15,North,-999,0.0,0.0,50,0.00,,,-99.99,FreeWX 2.04,2013-07-30 23:39:00,
2013-07-30 19:49:00,72.1,53.1,30.15,North,-999,0.0,0.0,51,0.00,,,-99.99,FreeWX 2.04,2013-07-30 23:49:00,
2013-07-30 19:59:00,72.1,53.1,30.15,North,-999,0.0,0.0,51,0.00,,,-99.99,FreeWX 2.04,2013-07-30 23:59:00,
2013-07-30 20:09:00,72.0,52.9,30.15,North,-999,0.0,0.0,51,0.00,,,-99.99,FreeWX 2.04,2013-07-31 00:09:00,
2013-07-30 20:19:00,71.6,52.5,30.15,North,-999,0.0,0.0,51,0.00,,,-99.99,FreeWX 2.04,2013-07-31 00:19:00,
2013-07-30 20:29:00,71.4,53.4,30.15,North,-999,0.0,0.0,53,0.00,,,-99.99,FreeWX 2.04,2013-07-31 00:29:00,
2013-07-30 20:39:00,71.2,53.2,30.15,North,-999,0.0,0.0,53,0.00,,,-99.99,FreeWX 2.04,2013-07-31 00:39:00,
2013-07-30 20:49:00,71.1,54.1,30.15,North,-999,0.0,0.0,55,0.00,,,-99.99,FreeWX 2.04,2013-07-31 00:49:00,
2013-07-30 20:59:00,71.1,54.1,30.15,North,-999,0.0,0.0,55,0.00,,,-99.99,FreeWX 2.04,2013-07-31 00:59:00,
2013-07-30 21:09:00,70.9,54.0,30.15,North,-999,0.0,0.0,55,0.00,,,-99.99,FreeWX 2.04,2013-07-31 01:09:00,
2013-07-30 21:19:00,70.5,53.6,30.15,North,-999,0.0,0.0,55,0.00,,,-99.99,FreeWX 2.04,2013-07-31 01:19:00,
2013-07-30 21:29:00,70.3,54.0,30.15,North,-999,0.0,0.0,56,0.00,,,-99.99,FreeWX 2.04,2013-07-31 01:29:00,
2013-07-30 21:39:00,70.3,55.4,30.15,North,-999,0.0,0.0,59,0.00,,,-99.99,FreeWX 2.04,2013-07-31 01:39:00,
2013-07-30 21:49:00,70.2,55.6,30.15,North,-999,0.0,0.0,60,0.00,,,-99.99,FreeWX 2.04,2013-07-31 01:49:00,
2013-07-30 21:59:00,70.0,56.3,30.15,North,-999,0.0,0.0,62,0.00,,,-99.99,FreeWX 2.04,2013-07-31 01:59:00,
2013-07-30 22:09:00,69.6,55.0,30.15,North,-999,0.0,0.0,60,0.00,,,-99.99,FreeWX 2.04,2013-07-31 02:09:00,
2013-07-30 22:19:00,70.0,57.2,30.15,North,-999,0.0,0.0,64,0.00,,,-99.99,FreeWX 2.04,2013-07-31 02:19:00,
2013-07-30 22:29:00,69.8,56.7,30.15,North,-999,0.0,0.0,63,0.00,,,-99.99,FreeWX 2.04,2013-07-31 02:29:00,
2013-07-30 22:39:00,69.6,55.9,30.15,North,-999,0.0,0.0,62,0.00,,,-99.99,FreeWX 2.04,2013-07-31 02:39:00,
2013-07-30 22:49:00,69.4,55.8,30.15,North,-999,0.0,0.0,62,0.00,,,-99.99,FreeWX 2.04,2013-07-31 02:49:00,
2013-07-30 22:59:00,69.3,55.8,30.15,North,-999,0.0,0.0,62,0.00,,,-99.99,FreeWX 2.04,2013-07-31 02:59:00,
2013-07-30 23:09:00,69.1,55.6,30.15,North,-999,0.0,0.0,62,0.00,,,-99.99,FreeWX 2.04,2013-07-31 03:09:00,
2013-07-30 23:19:00,68.9,55.4,30.15,North,-999,0.0,0.0,62,0.00,,,-99.99,FreeWX 2.04,2013-07-31 03:19:00,
2013-07-30 23:29:00,68.9,55.8,30.15,North,-999,0.0,0.0,63,0.00,,,-99.99,FreeWX 2.04,2013-07-31 03:29:00,
2013-07-30 23:39:00,68.7,55.6,30.15,North,-999,0.0,0.0,63,0.00,,,-99.99,FreeWX 2.04,2013-07-31 03:39:00,
2013-07-30 23:49:00,68.5,55.0,30.15,North,-999,0.0,0.0,62,0.00,,,-99.99,FreeWX 2.04,2013-07-31 03:49:00,
2013-07-30 23:59:00,68.4,55.2,30.15,North,-999,0.0,0.0,63,0.00,,,-99.99,FreeWX 2.04,2013-07-31 03:59:00,